When you browse on this site, cookies collect data to enhance your experience and personalize the content and advertising you see.
Visit our Privacy Policy to learn more. By continuing to use the site, you agree to this use of cookies and data.
  • In Portugal
  • List of Countries
  • For 7 days
  • Water Temperature
  • Weather Map
  • Weather Widgets
  • user-avatar
    Login

    Hourly Weather Jalalabad

    Today, 27 May, Wednesday

    Time Temperature Precipitation Wind Pressure Humidity
    00:00 +34°C° 0 mm 3 mps 707 mmHg 21%
    01:00 +33°C° 0 mm 3 mps 707 mmHg 23%
    02:00 +31°C° 0 mm 3 mps 706 mmHg 24%
    03:00 +30°C° 0 mm 3 mps 706 mmHg 24%
    04:00 +30°C° 0 mm 3 mps 706 mmHg 25%
    05:00 +29°C° 0 mm 3 mps 706 mmHg 25%
    06:00 +32°C° 0 mm 4 mps 706 mmHg 22%
    07:00 +33°C° 0 mm 4 mps 707 mmHg 20%
    08:00 +35°C° 0 mm 5 mps 707 mmHg 18%
    09:00 +36°C° 0 mm 5 mps 707 mmHg 16%
    10:00 +39°C° 0 mm 6 mps 707 mmHg 14%
    11:00 +40°C° 0 mm 6 mps 707 mmHg 12%
    12:00 +41°C° 0 mm 6 mps 706 mmHg 11%
    13:00 +42°C° 0 mm 6 mps 706 mmHg 10%
    14:00 +44°C° 0 mm 6 mps 706 mmHg 9%
    15:00 +44°C° 0 mm 6 mps 705 mmHg 9%
    16:00 +44°C° 0 mm 6 mps 705 mmHg 9%
    17:00 +44°C° 0 mm 6 mps 705 mmHg 9%
    18:00 +41°C° 0 mm 5 mps 705 mmHg 13%
    19:00 +38°C° 0 mm 4 mps 705 mmHg 16%
    20:00 +36°C° 0 mm 3 mps 705 mmHg 19%
    21:00 +35°C° 0 mm 3 mps 705 mmHg 21%
    22:00 +34°C° 0 mm 4 mps 705 mmHg 22%
    23:00 +33°C° 0 mm 4 mps 705 mmHg 23%

    Tomorrow, 28 May, Thursday

    Time Temperature Precipitation Wind Pressure Humidity
    00:00 +33°C° 0 mm 4 mps 705 mmHg 24%
    01:00 +32°C° 0 mm 4 mps 705 mmHg 25%
    02:00 +30°C° 0 mm 3 mps 705 mmHg 26%
    03:00 +30°C° 0 mm 3 mps 704 mmHg 26%
    04:00 +29°C° 0 mm 3 mps 704 mmHg 27%
    05:00 +29°C° 0 mm 3 mps 704 mmHg 28%
    06:00 +30°C° 0 mm 3 mps 704 mmHg 25%
    07:00 +33°C° 0 mm 4 mps 705 mmHg 23%
    08:00 +34°C° 0 mm 4 mps 705 mmHg 20%
    09:00 +36°C° 0 mm 4 mps 705 mmHg 18%
    10:00 +37°C° 0 mm 4 mps 705 mmHg 16%
    11:00 +40°C° 0 mm 5 mps 705 mmHg 15%
    12:00 +41°C° 0 mm 5 mps 705 mmHg 14%
    13:00 +41°C° 0 mm 5 mps 705 mmHg 13%
    14:00 +42°C° 0 mm 5 mps 704 mmHg 11%
    15:00 +42°C° 0 mm 5 mps 704 mmHg 13%
    16:00 +41°C° 0 mm 6 mps 704 mmHg 14%
    17:00 +40°C° 0 mm 6 mps 704 mmHg 15%
    18:00 +39°C° 0 mm 5 mps 704 mmHg 17%
    19:00 +37°C° 0 mm 3 mps 705 mmHg 20%
    20:00 +36°C° 0 mm 2 mps 705 mmHg 22%
    21:00 +35°C° 0 mm 2 mps 705 mmHg 24%
    22:00 +34°C° 0 mm 2 mps 705 mmHg 25%
    23:00 +34°C° 0 mm 2 mps 705 mmHg 27%

    Day after tomorrow, 29 May, Friday

    Time Temperature Precipitation Wind Pressure Humidity
    00:00 +32°C° 0 mm 2 mps 705 mmHg 28%
    01:00 +31°C° 0 mm 2 mps 705 mmHg 29%
    02:00 +31°C° 0 mm 2 mps 705 mmHg 30%
    03:00 +30°C° 0 mm 2 mps 705 mmHg 31%
    04:00 +30°C° 0 mm 2 mps 705 mmHg 32%
    05:00 +29°C° 0 mm 2 mps 704 mmHg 33%
    06:00 +31°C° 0 mm 3 mps 705 mmHg 31%
    07:00 +33°C° 0 mm 4 mps 705 mmHg 28%
    08:00 +34°C° 0 mm 5 mps 706 mmHg 25%
    09:00 +35°C° 0 mm 4 mps 706 mmHg 23%
    10:00 +36°C° 0 mm 4 mps 706 mmHg 21%
    11:00 +37°C° 0 mm 4 mps 706 mmHg 19%
    12:00 +37°C° 0 mm 4 mps 706 mmHg 19%
    13:00 +38°C° 0 mm 4 mps 706 mmHg 18%
    14:00 +40°C° 0 mm 5 mps 706 mmHg 18%
    15:00 +38°C° 0 mm 4 mps 705 mmHg 18%
    16:00 +38°C° 0 mm 3 mps 705 mmHg 18%
    17:00 +38°C° 0 mm 2 mps 705 mmHg 18%
    18:00 +37°C° 0 mm 2 mps 705 mmHg 21%
    19:00 +36°C° 0 mm 2 mps 706 mmHg 25%
    20:00 +34°C° 0 mm 2 mps 706 mmHg 28%
    21:00 +34°C° 0 mm 2 mps 706 mmHg 29%
    22:00 +32°C° 0 mm 1 mps 706 mmHg 30%
    23:00 +32°C° 0 mm 1 mps 706 mmHg 31%

    30 May, Saturday

    Time Temperature Precipitation Wind Pressure Humidity
    00:00 +31°C° 0.2 mm 1 mps 706 mmHg 33%
    01:00 +31°C° 0.2 mm 1 mps 706 mmHg 34%
    02:00 +30°C° 0.2 mm 1 mps 706 mmHg 36%
    03:00 +29°C° 0 mm 1 mps 706 mmHg 38%
    04:00 +29°C° 0 mm 1 mps 706 mmHg 41%
    05:00 +26°C° 0 mm 0 mps 706 mmHg 43%
    06:00 +29°C° 0.1 mm 1 mps 706 mmHg 40%
    07:00 +30°C° 0.1 mm 1 mps 707 mmHg 37%
    08:00 +31°C° 0.1 mm 1 mps 707 mmHg 33%
    09:00 +32°C° 0.1 mm 2 mps 707 mmHg 32%
    10:00 +34°C° 0.1 mm 2 mps 708 mmHg 30%
    11:00 +35°C° 0.1 mm 2 mps 708 mmHg 29%
    12:00 +35°C° 0.1 mm 3 mps 708 mmHg 28%
    13:00 +35°C° 0.1 mm 4 mps 707 mmHg 27%
    14:00 +36°C° 0.1 mm 5 mps 707 mmHg 27%
    15:00 +34°C° 0.4 mm 5 mps 707 mmHg 30%
    16:00 +33°C° 0.4 mm 5 mps 707 mmHg 34%
    17:00 +32°C° 0.4 mm 5 mps 707 mmHg 38%
    18:00 +30°C° 0 mm 4 mps 707 mmHg 41%
    19:00 +29°C° 0 mm 3 mps 707 mmHg 44%
    20:00 +28°C° 0 mm 2 mps 708 mmHg 47%
    21:00 +28°C° 0.1 mm 2 mps 708 mmHg 49%
    22:00 +27°C° 0.1 mm 1 mps 708 mmHg 52%
    23:00 +27°C° 0.1 mm 1 mps 708 mmHg 54%

    31 May, Sunday

    Time Temperature Precipitation Wind Pressure Humidity
    00:00 +27°C° 0 mm 1 mps 708 mmHg 55%
    01:00 +27°C° 0 mm 1 mps 707 mmHg 56%
    02:00 +26°C° 0 mm 1 mps 707 mmHg 56%
    03:00 +26°C° 0 mm 1 mps 707 mmHg 57%
    04:00 +24°C° 0 mm 0 mps 707 mmHg 57%
    05:00 +24°C° 0 mm 0 mps 707 mmHg 57%
    06:00 +27°C° 0.1 mm 1 mps 707 mmHg 55%
    07:00 +27°C° 0.1 mm 1 mps 708 mmHg 52%
    08:00 +28°C° 0.1 mm 1 mps 708 mmHg 49%
    09:00 +29°C° 0.1 mm 2 mps 708 mmHg 46%
    10:00 +30°C° 0.1 mm 2 mps 708 mmHg 42%
    11:00 +33°C° 0.1 mm 3 mps 709 mmHg 38%
    12:00 +33°C° 0.1 mm 4 mps 708 mmHg 37%
    13:00 +34°C° 0.1 mm 5 mps 708 mmHg 36%
    14:00 +34°C° 0.1 mm 6 mps 708 mmHg 34%
    15:00 +34°C° 0 mm 6 mps 708 mmHg 37%
    16:00 +33°C° 0 mm 6 mps 708 mmHg 40%
    17:00 +32°C° 0 mm 6 mps 707 mmHg 43%
    18:00 +30°C° 0 mm 5 mps 707 mmHg 46%
    19:00 +29°C° 0 mm 4 mps 707 mmHg 49%
    20:00 +28°C° 0 mm 3 mps 707 mmHg 52%
    21:00 +28°C° 0 mm 2 mps 708 mmHg 53%
    22:00 +28°C° 0 mm 1 mps 708 mmHg 54%
    23:00 +27°C° 0 mm 1 mps 709 mmHg 56%

    1 June, Monday

    Time Temperature Precipitation Wind Pressure Humidity
    00:00 +27°C° 0.1 mm 1 mps 708 mmHg 58%
    01:00 +25°C° 0.1 mm 0 mps 708 mmHg 60%
    02:00 +24°C° 0.1 mm 0 mps 708 mmHg 62%
    03:00 +24°C° 0.1 mm 0 mps 708 mmHg 63%
    04:00 +23°C° 0.1 mm 0 mps 708 mmHg 65%
    05:00 +23°C° 0.1 mm 0 mps 708 mmHg 66%
    06:00 +24°C° 0 mm 0 mps 708 mmHg 62%
    07:00 +25°C° 0 mm 0 mps 708 mmHg 57%
    08:00 +28°C° 0 mm 1 mps 709 mmHg 52%
    09:00 +29°C° 0 mm 1 mps 709 mmHg 47%
    10:00 +31°C° 0 mm 1 mps 708 mmHg 41%
    11:00 +32°C° 0 mm 1 mps 708 mmHg 35%
    12:00 +34°C° 0 mm 2 mps 708 mmHg 31%
    13:00 +35°C° 0 mm 2 mps 708 mmHg 27%
    14:00 +37°C° 0 mm 3 mps 708 mmHg 23%
    15:00 +37°C° 0 mm 3 mps 708 mmHg 23%
    16:00 +37°C° 0 mm 4 mps 707 mmHg 22%
    17:00 +37°C° 0 mm 5 mps 707 mmHg 22%
    18:00 +36°C° 0 mm 4 mps 707 mmHg 27%
    19:00 +34°C° 0 mm 4 mps 707 mmHg 32%
    20:00 +33°C° 0 mm 3 mps 707 mmHg 37%
    21:00 +31°C° 0 mm 2 mps 707 mmHg 40%
    22:00 +30°C° 0 mm 1 mps 708 mmHg 42%
    23:00 +30°C° 0 mm 1 mps 708 mmHg 45%
    Show more